N6GIW Weather Reports


Display with metric or nautical units.
time (UTC)temp
F
wind
direction
speed
MPH
gust
MPH
rain 1hr
in
rain 24hr
in
rain mn
in
humidity
%
barometer
mb
20260505124504 43 245 0.0 0.0 0.00 0.00 0.00 63 1017.6
20260505124003 44 245 0.0 0.0 0.00 0.00 0.00 62 1017.6
20260505123504 44 245 0.0 1.0 0.00 0.00 0.00 61 1017.6
20260505123003 44 245 1.0 3.0 0.00 0.00 0.00 61 1017.6
20260505122503 45 242 2.0 3.0 0.00 0.00 0.00 60 1017.7
20260505122003 45 236 2.0 5.0 0.00 0.00 0.00 61 1017.6
20260505121503 45 235 2.0 3.0 0.00 0.00 0.00 60 1017.6
20260505121003 44 234 2.0 3.0 0.00 0.00 0.00 60 1017.6
20260505120504 44 233 2.0 5.0 0.00 0.00 0.00 60 1017.5
20260505120005 43 233 2.0 5.0 0.00 0.00 0.00 62 1017.6
20260505115504 43 235 0.0 2.0 0.00 0.00 0.00 65 1017.5
20260505115004 42 211 0.0 0.0 0.00 0.00 0.00 65 1017.5
20260505114504 41 211 0.0 0.0 0.00 0.00 0.00 64 1017.5
20260505114003 42 211 0.0 0.0 0.00 0.00 0.00 64 1017.6
20260505113503 42 211 0.0 0.0 0.00 0.00 0.00 63 1017.4
20260505112503 42 211 0.0 1.0 0.00 0.00 0.00 64 1017.5
20260505112005 42 211 0.0 0.0 0.00 0.00 0.00 63 1017.5
20260505111503 42 211 0.0 0.0 0.00 0.00 0.00 63 1017.4
20260505110504 42 211 0.0 0.0 0.00 0.00 0.00 64 1017.4
20260505102003 44 232 0.0 0.0 0.00 0.00 0.00 60 1017.5
20260505101504 44 232 0.0 1.0 0.00 0.00 0.00 61 1017.5
20260505101003 45 232 0.0 2.0 0.00 0.00 0.00 60 1017.6
20260505100003 44 237 2.0 3.0 0.00 0.00 0.00 61 1017.6
20260505095504 44 262 1.0 2.0 0.00 0.00 0.00 63 1017.5
20260505095005 44 297 1.0 3.0 0.00 0.00 0.00 62 1017.6
20260505094004 45 214 1.0 2.0 0.00 0.00 0.00 63 1017.6
20260505093505 45 236 0.0 0.0 0.00 0.00 0.00 62 1017.9
20260505092004 45 246 1.0 3.0 0.00 0.00 0.00 62 1017.9
20260505091504 46 221 1.0 2.0 0.00 0.00 0.00 61 1017.9
20260505091003 47 224 1.0 2.0 0.00 0.00 0.00 60 1017.9
20260505090004 47 232 2.0 5.0 0.00 0.00 0.00 61 1017.9
20260505085003 48 236 3.0 8.0 0.00 0.00 0.00 61 1018.0
20260505084503 48 216 2.0 5.0 0.00 0.00 0.00 62 1018.0
20260505084004 47 222 3.0 5.0 0.00 0.00 0.00 62 1018.0
20260505083504 47 229 2.0 3.0 0.00 0.00 0.00 62 1018.0
20260505083004 47 229 2.0 3.0 0.00 0.00 0.00 62 1018.0
20260505082503 47 229 2.0 3.0 0.00 0.00 0.00 62 1018.1
20260505082004 47 231 2.0 3.0 0.00 0.00 0.00 62 1018.1
20260505081504 47 236 1.0 3.0 0.00 0.00 0.00 62 1018.1
20260505081003 47 236 0.0 3.0 0.00 0.00 0.00 61 1018.4
20260505080004 48 230 2.0 3.0 0.00 0.00 0.00 60 1018.5
20260505075504 48 241 1.0 5.0 0.00 0.00 0.00 58 1018.5
20260505074505 48 229 1.0 5.0 0.00 0.00 0.00 60 1018.4
20260505074004 48 225 2.0 3.0 0.00 0.00 0.00 60 1018.4
20260505073503 48 240 2.0 3.0 0.00 0.00 0.00 60 1018.4
20260505072503 49 255 2.0 3.0 0.00 0.00 0.00 59 1018.4
20260505072004 49 245 2.0 3.0 0.00 0.00 0.00 58 1018.4
20260505071504 49 231 2.0 3.0 0.00 0.00 0.00 58 1018.4
20260505070504 50 237 3.0 5.0 0.00 0.00 0.00 57 1018.4
20260505070004 50 232 3.0 6.0 0.00 0.00 0.00 58 1018.4
20260505064004 50 234 2.0 5.0 0.00 0.00 0.00 55 1018.4
20260505063004 51 233 2.0 6.0 0.00 0.00 0.00 55 1018.3
20260505062503 51 224 3.0 6.0 0.00 0.00 0.00 54 1018.3
20260505062004 51 223 3.0 6.0 0.00 0.00 0.00 54 1018.5
20260505061503 51 230 2.0 3.0 0.00 0.00 0.00 54 1018.6
20260505061004 51 228 3.0 6.0 0.00 0.00 0.00 54 1018.5
20260505055504 52 220 3.0 6.0 0.00 0.00 0.00 53 1018.5
20260505055004 52 220 3.0 6.0 0.00 0.00 0.00 52 1018.6
20260505054504 52 217 2.0 5.0 0.00 0.00 0.00 52 1018.6
20260505054003 52 209 4.0 7.0 0.00 0.00 0.00 51 1018.7
20260505053504 52 218 3.0 7.0 0.00 0.00 0.00 51 1018.5
20260505053003 52 221 3.0 6.0 0.00 0.00 0.00 50 1018.5
20260505052504 52 216 3.0 6.0 0.00 0.00 0.00 49 1018.6
20260505052004 53 215 3.0 7.0 0.00 0.00 0.00 48 1018.5
20260505051504 53 218 3.0 12.0 0.00 0.00 0.00 48 1018.5
20260505051004 53 229 4.0 9.0 0.00 0.00 0.00 48 1018.6
20260505050503 53 225 3.0 7.0 0.00 0.00 0.00 48 1018.6
20260505041504 54 227 5.0 9.0 0.00 0.00 0.00 46 1018.2
20260505041005 54 223 5.0 13.0 0.00 0.00 0.00 46 1018.1
20260505040504 54 198 7.0 13.0 0.00 0.00 0.00 46 1018.1
20260505040005 54 222 7.0 13.0 0.00 0.00 0.00 46 1017.9
20260505035504 54 210 8.0 13.0 0.00 0.00 0.00 46 1017.9
20260505035004 54 216 6.0 12.0 0.00 0.00 0.00 46 1018.0
20260505034504 54 215 10.0 14.0 0.00 0.00 0.00 46 1017.9
20260505034004 54 203 9.0 13.0 0.00 0.00 0.00 47 1018.0
20260505033504 55 204 7.0 13.0 0.00 0.00 0.00 47 1018.0
20260505033004 55 218 7.0 13.0 0.00 0.00 0.00 47 1017.8
20260505032504 55 210 9.0 14.0 0.00 0.00 0.00 47 1017.6
20260505032004 55 210 10.0 14.0 0.00 0.00 0.00 47 1017.6
20260505031504 55 218 9.0 15.0 0.00 0.00 0.00 47 1017.7
20260505031003 55 214 9.0 14.0 0.00 0.00 0.00 48 1017.7
20260505030504 55 208 12.0 16.0 0.00 0.00 0.00 49 1017.7
20260505030004 55 208 10.0 16.0 0.00 0.00 0.00 49 1017.8
20260505025504 55 222 10.0 15.0 0.00 0.00 0.00 50 1017.7
20260505025005 56 218 9.0 14.0 0.00 0.00 0.00 51 1017.6
20260505024503 56 218 10.0 15.0 0.00 0.00 0.00 52 1017.6
20260505024004 56 222 9.0 16.0 0.00 0.00 0.00 51 1017.5
20260505022503 57 222 7.0 14.0 0.00 0.00 0.00 46 1017.6
20260505022004 58 214 9.0 16.0 0.00 0.00 0.00 45 1017.7
20260505021503 58 221 9.0 16.0 0.00 0.00 0.00 44 1017.4
20260505021004 59 216 9.0 13.0 0.00 0.00 0.00 43 1017.4
20260505020504 59 223 7.0 16.0 0.00 0.00 0.00 42 1017.3
20260505020004 59 214 8.0 13.0 0.00 0.00 0.00 42 1017.5
20260505015504 60 226 6.0 13.0 0.00 0.00 0.00 41 1017.5
20260505015004 60 211 9.0 14.0 0.00 0.00 0.00 40 1017.4
20260505014004 61 226 7.0 14.0 0.00 0.00 0.00 40 1017.4
20260505013505 61 208 13.0 16.0 0.00 0.00 0.00 39 1017.3
20260505013004 61 199 12.0 18.0 0.00 0.00 0.00 39 1017.4
20260505012504 62 209 10.0 16.0 0.00 0.00 0.00 39 1017.3
20260505012004 62 205 9.0 16.0 0.00 0.00 0.00 39 1017.2
20260505011504 62 208 10.0 17.0 0.00 0.00 0.00 39 1017.4
20260505011004 62 208 10.0 21.0 0.00 0.00 0.00 38 1017.3
20260505010504 63 197 11.0 21.0 0.00 0.00 0.00 38 1017.4
20260505010005 63 212 13.0 20.0 0.00 0.00 0.00 37 1017.3
20260505005504 64 217 10.0 16.0 0.00 0.00 0.00 36 1017.2
20260505005004 64 225 12.0 17.0 0.00 0.00 0.00 36 1017.3
20260505004504 64 217 10.0 18.0 0.00 0.00 0.00 36 1017.3
20260505004004 65 207 12.0 16.0 0.00 0.00 0.00 36 1017.2
20260505003504 65 213 12.0 17.0 0.00 0.00 0.00 35 1017.3
20260505003004 65 211 10.0 18.0 0.00 0.00 0.00 35 1017.3
20260505002004 65 198 12.0 22.0 0.00 0.00 0.00 34 1017.5
20260505001003 66 206 11.0 16.0 0.00 0.00 0.00 34 1017.5
20260505000504 66 199 12.0 20.0 0.00 0.00 0.00 34 1017.5
20260505000004 65 193 14.0 20.0 0.00 0.00 0.00 35 1017.3
20260504235504 65 202 12.0 17.0 0.00 0.00 0.00 35 1017.3
20260504235004 65 212 9.0 16.0 0.00 0.00 0.00 35 1017.4
20260504234504 66 213 9.0 17.0 0.00 0.00 0.00 34 1017.4
20260504234004 66 201 12.0 20.0 0.00 0.00 0.00 34 1017.3
20260504233503 66 192 11.0 15.0 0.00 0.00 0.00 34 1017.3
20260504233005 67 189 12.0 20.0 0.00 0.00 0.00 34 1017.3
20260504232504 66 191 12.0 17.0 0.00 0.00 0.00 34 1017.3
20260504232004 66 187 11.0 17.0 0.00 0.00 0.00 33 1017.5
20260504231504 67 196 10.0 16.0 0.00 0.00 0.00 32 1017.4
20260504231004 67 196 9.0 16.0 0.00 0.00 0.00 32 1017.4
20260504230504 67 172 13.0 20.0 0.00 0.00 0.00 32 1017.5
20260504230003 68 195 10.0 16.0 0.00 0.00 0.00 32 1017.4
20260504225503 67 178 12.0 20.0 0.00 0.00 0.00 33 1017.5
20260504225004 67 183 11.0 17.0 0.00 0.00 0.00 32 1017.4
20260504224504 68 204 11.0 20.0 0.00 0.00 0.00 32 1017.4
20260504224004 68 186 12.0 17.0 0.00 0.00 0.00 32 1017.4
20260504223004 67 179 12.0 17.0 0.00 0.00 0.00 32 1017.5
20260504222504 67 183 14.0 18.0 0.00 0.00 0.00 32 1017.7
20260504222004 67 177 13.0 20.0 0.00 0.00 0.00 32 1017.8
20260504221504 67 206 9.0 14.0 0.00 0.00 0.00 33 1017.9
20260504221004 67 179 10.0 17.0 0.00 0.00 0.00 33 1017.8
20260504220504 67 201 12.0 17.0 0.00 0.00 0.00 33 1018.1
20260504220003 66 199 8.0 14.0 0.00 0.00 0.00 34 1018.1
20260504215503 66 199 9.0 20.0 0.00 0.00 0.00 34 1018.3
20260504215003 66 194 12.0 16.0 0.00 0.00 0.00 33 1018.4
20260504214503 66 189 9.0 15.0 0.00 0.00 0.00 34 1018.4
20260504213503 65 190 12.0 20.0 0.00 0.00 0.00 35 1018.4
20260504213003 66 198 12.0 18.0 0.00 0.00 0.00 34 1018.5
20260504212503 66 207 9.0 15.0 0.00 0.00 0.00 34 1018.4
20260504212003 66 182 9.0 17.0 0.00 0.00 0.00 34 1018.6
20260504211503 65 194 12.0 22.0 0.00 0.00 0.00 35 1018.6
20260504211003 66 208 11.0 18.0 0.00 0.00 0.00 35 1018.6
20260504204503 66 208 10.0 16.0 0.00 0.00 0.00 33 1018.8
20260504204003 66 167 10.0 14.0 0.00 0.00 0.00 34 1018.6
20260504203503 66 194 12.0 17.0 0.00 0.00 0.00 34 1018.6
20260504203004 65 167 11.0 20.0 0.00 0.00 0.00 35 1018.6
20260504202502 66 199 9.0 16.0 0.00 0.00 0.00 35 1019.0
20260504202004 66 175 13.0 20.0 0.00 0.00 0.00 35 1018.9
20260504201502 66 201 8.0 15.0 0.00 0.00 0.00 35 1018.9
20260504200503 66 138 8.0 12.0 0.00 0.00 0.00 35 1019.1
20260504195503 65 226 6.0 16.0 0.00 0.00 0.00 35 1019.1
20260504194503 65 219 6.0 12.0 0.00 0.00 0.00 35 1019.2
20260504194003 64 165 6.0 13.0 0.00 0.00 0.00 36 1019.3
20260504193502 64 203 2.0 7.0 0.00 0.00 0.00 32 1019.2
20260504193003 64 189 4.0 17.0 0.00 0.00 0.00 34 1019.2
20260504192502 64 154 6.0 12.0 0.00 0.00 0.00 32 1019.2
20260504192003 64 176 8.0 15.0 0.00 0.00 0.00 33 1019.0
20260504191504 64 181 2.0 14.0 0.00 0.00 0.00 35 1019.3
20260504191002 65 174 5.0 15.0 0.00 0.00 0.00 35 1019.3
20260504190503 65 134 4.0 8.0 0.00 0.00 0.00 35 1019.4
20260504190003 65 126 1.0 3.0 0.00 0.00 0.00 36 1019.5
20260504185004 64 165 2.0 9.0 0.00 0.00 0.00 36 1019.8
20260504184003 64 103 1.0 3.0 0.00 0.00 0.00 37 1019.5
20260504183503 64 132 2.0 5.0 0.00 0.00 0.00 36 1019.4
20260504183003 64 150 2.0 7.0 0.00 0.00 0.00 36 1019.2
20260504182503 63 99 0.0 3.0 0.00 0.00 0.00 37 1019.5
20260504182003 63 95 1.0 3.0 0.00 0.00 0.00 38 1019.5
20260504181503 63 138 0.0 2.0 0.00 0.00 0.00 38 1019.5
20260504181003 62 110 0.0 2.0 0.00 0.00 0.00 38 1019.5
20260504180503 62 103 1.0 3.0 0.00 0.00 0.00 39 1019.6
20260504180002 62 70 1.0 9.0 0.00 0.00 0.00 39 1019.4
20260504175502 62 90 1.0 3.0 0.00 0.00 0.00 40 1019.3
20260504175003 62 90 1.0 5.0 0.00 0.00 0.00 39 1019.3
20260504174003 61 93 2.0 3.0 0.00 0.00 0.00 40 1019.2
20260504173503 61 152 2.0 7.0 0.00 0.00 0.00 40 1019.1
20260504173004 61 109 0.0 2.0 0.00 0.00 0.00 40 1019.0
20260504172502 60 124 0.0 1.0 0.00 0.00 0.00 41 1019.3
20260504172004 60 124 0.0 5.0 0.00 0.00 0.00 42 1019.2
20260504170502 59 166 1.0 3.0 0.00 0.00 0.00 43 1019.2
20260504151004 55 109 0.0 2.0 0.00 0.00 0.00 51 1018.7
20260504150503 55 109 0.0 1.0 0.00 0.00 0.00 51 1018.6
20260504141003 51 205 3.0 3.0 0.00 0.00 0.00 57 1018.6
20260504140503 51 209 1.0 3.0 0.00 0.00 0.00 59 1018.7
20260504130502 47 187 0.0 1.0 0.00 0.00 0.00 60 1017.9